Location: Betpouey
(42.8833°N, 0.0333°E)
Time: 07:14:17
(UTC+00:00)

FENGYUN 1C DEB - Visible Passes

Search period start: 21 June 2021 00:00
Search period end: 01 July 2021 00:00
Orbit: 617 x 1057 km, 99.2° (Epoch: 19 June)

Date Brightness Start Highest point End Pass type
(mag) Time Alt. Az. Time Alt. Az. Time Alt. Az.
21 Jun ? 21:41:07 10° N 21:47:18 50° WNW 21:53:00 10° SW visible
22 Jun ? 21:25:16 10° N 21:31:39 65° WNW 21:37:27 10° SSW visible
22 Jun ? 23:08:05 10° NNW 23:10:38 13° NW 23:13:08 10° WNW visible
23 Jun ? 21:09:29 10° NNE 21:15:56 85° WNW 21:21:45 10° SSW visible
23 Jun ? 22:51:29 10° NNW 22:55:12 16° NW 22:58:47 10° W visible
24 Jun ? 20:53:47 10° NNE 21:00:10 74° ESE 21:05:54 10° S visible
24 Jun ? 22:35:12 10° NNW 22:39:43 21° WNW 22:43:59 10° WSW visible
25 Jun ? 20:38:09 10° NNE 20:44:20 55° E 20:49:54 10° S visible
25 Jun ? 22:19:04 10° N 22:24:11 27° WNW 22:28:57 10° WSW visible
26 Jun ? 20:22:36 10° NNE 20:28:28 41° E 20:33:44 10° SSE visible
26 Jun ? 22:03:04 10° N 22:08:37 34° WNW 22:13:44 10° SW visible
27 Jun ? 21:47:08 10° N 21:53:01 44° WNW 21:58:20 10° SW visible
28 Jun ? 21:31:17 10° N 21:37:22 59° WNW 21:42:48 10° SSW visible
28 Jun ? 23:14:54 10° NW 23:16:16 11° NW 23:17:36 10° WNW visible
29 Jun ? 21:15:29 10° NNE 21:21:39 78° WNW 21:27:07 10° SSW visible
29 Jun ? 22:57:49 10° NNW 23:00:49 14° NW 23:03:43 10° W visible
30 Jun ? 20:59:45 10° NNE 21:05:53 79° ESE 21:11:18 10° S visible
30 Jun ? 22:41:24 10° NNW 22:45:20 18° NW 22:49:04 10° W visible
